Regional Weather Roundup
Issued by NWS

Home | Current Version | Previous Version | Graphics & Text | Print | Product List | Glossary On
Versions: 1 2 3 4 5 6 7 8 9 10 11 12 13 14 15 16 17 18 19 20 21 22 23 24 25 26 27 28 29 30 31 32 33 34 35 36 37 38 39 40 41 42 43 44 45 46 47 48 49 50
927
ASUS43 KBIS 041902
RWRND

NORTH DAKOTA REGIONAL WEATHER ROUNDUP
NATIONAL WEATHER SERVICE BISMARCK ND
100 PM CST SUN DEC 04 2016

NOTE: "FAIR" INDICATES FEW OR NO CLOUDS BELOW 12,000 FEET WITH NO
SIGNIFICANT WEATHER AND/OR OBSTRUCTIONS TO VISIBILITY.


NDZ001>003-009>011-017-042000-
NORTHWEST NORTH DAKOTA

CITY           SKY/WX    TMP DP  RH WIND       PRES   REMARKS
WILLISTON      SUNNY     29  22  75 VRB3      29.69F
MINOT          SUNNY     30  23  75 W13       29.67F WCI  20
MINOT AFB      CLOUDY    28  25  87 NW12      29.67F WCI  18
$$

NDZ018>021-031>035-040>046-042000-
SOUTHWEST NORTH DAKOTA

CITY           SKY/WX    TMP DP  RH WIND       PRES   REMARKS
BISMARCK       SUNNY     32  22  66 W12       29.74F
DICKINSON      SUNNY     28  20  71 W8        29.68F WCI  20
GARRISON         N/A     29  22  75 W8        29.69F
HETTINGER ARPT SUNNY     35  24  64 W12       29.74F
$$

NDZ004>008-012>016-024-026-027-054-042000-
NORTHEAST NORTH DAKOTA

CITY           SKY/WX    TMP DP  RH WIND       PRES   REMARKS
GRAND FORKS    CLOUDY    32  27  81 W9        29.66F
GRND FRKS AFB  CLOUDY    31  27  84 W13       29.66S
DEVILS LAKE    LGT SNOW  28  26  92 W17       29.65F FOG     WCI  16
$$

NDZ022-023-025-028>030-036>039-047>053-042000-
SOUTHEAST NORTH DAKOTA

CITY           SKY/WX    TMP DP  RH WIND       PRES   REMARKS
FARGO          CLOUDY    34  31  88 W15       29.70S
JAMESTOWN      CLOUDY    34  30  85 W12       29.69F
$$





USA.gov is the U.S. government's official web portal to all federal, state and local government web resources and services.